• In Hungary
  • List of Countries
  • For 7 days
  • Water Temperature
  • Satellite Maps
  • Weather Map
  • News
  • Weather Widgets
  • user-avatar
    Login

    Hourly Weather Bogatoe

    Today, 22 July, Sunday

    Time Temperature Precipitation Wind Pressure Humidity
    00:00 +20°C° 0.3 mm 5 mps 750 mmHg 92%
    01:00 +20°C° 0.8 mm 5 mps 750 mmHg 93%
    02:00 +20°C° 0.8 mm 5 mps 750 mmHg 94%
    03:00 +20°C° 0.8 mm 5 mps 750 mmHg 95%
    04:00 +20°C° 0.7 mm 5 mps 751 mmHg 94%
    05:00 +20°C° 0.7 mm 6 mps 751 mmHg 94%
    06:00 +19°C° 0.7 mm 6 mps 751 mmHg 93%
    07:00 +20°C° 0.4 mm 6 mps 751 mmHg 91%
    08:00 +20°C° 0.4 mm 6 mps 752 mmHg 89%
    09:00 +20°C° 0.4 mm 6 mps 752 mmHg 87%
    10:00 +20°C° 0.1 mm 6 mps 752 mmHg 85%
    11:00 +21°C° 0.1 mm 6 mps 752 mmHg 83%
    12:00 +22°C° 0.1 mm 6 mps 752 mmHg 81%
    13:00 +22°C° 0 mm 6 mps 752 mmHg 79%
    14:00 +22°C° 0 mm 6 mps 753 mmHg 77%
    15:00 +22°C° 0 mm 7 mps 753 mmHg 76%
    16:00 +22°C° 0 mm 6 mps 753 mmHg 76%
    17:00 +21°C° 0 mm 6 mps 753 mmHg 75%
    18:00 +21°C° 0 mm 6 mps 753 mmHg 75%
    19:00 +20°C° 0 mm 6 mps 753 mmHg 74%
    20:00 +19°C° 0 mm 6 mps 753 mmHg 73%
    21:00 +17°C° 0 mm 6 mps 753 mmHg 73%
    22:00 +17°C° 0 mm 6 mps 753 mmHg 71%
    23:00 +17°C° 0 mm 6 mps 754 mmHg 70%

    Tomorrow, 23 July, Monday

    Time Temperature Precipitation Wind Pressure Humidity
    00:00 +17°C° 0 mm 6 mps 754 mmHg 69%
    01:00 +17°C° 0 mm 6 mps 754 mmHg 68%
    02:00 +17°C° 0 mm 6 mps 754 mmHg 68%
    03:00 +17°C° 0 mm 5 mps 754 mmHg 67%
    04:00 +17°C° 0 mm 5 mps 754 mmHg 67%
    05:00 +17°C° 0 mm 5 mps 754 mmHg 67%
    06:00 +17°C° 0 mm 6 mps 754 mmHg 66%
    07:00 +17°C° 0.1 mm 6 mps 754 mmHg 67%
    08:00 +17°C° 0.1 mm 6 mps 755 mmHg 67%
    09:00 +19°C° 0.1 mm 6 mps 755 mmHg 67%
    10:00 +19°C° 0.1 mm 6 mps 755 mmHg 67%
    11:00 +19°C° 0.1 mm 6 mps 755 mmHg 68%
    12:00 +20°C° 0.1 mm 6 mps 755 mmHg 68%
    13:00 +21°C° 0.1 mm 6 mps 755 mmHg 66%
    14:00 +21°C° 0.1 mm 6 mps 755 mmHg 64%
    15:00 +22°C° 0.1 mm 6 mps 755 mmHg 63%
    16:00 +22°C° 0 mm 6 mps 755 mmHg 64%
    17:00 +22°C° 0 mm 6 mps 755 mmHg 65%
    18:00 +22°C° 0 mm 5 mps 755 mmHg 66%
    19:00 +22°C° 0.1 mm 5 mps 755 mmHg 65%
    20:00 +21°C° 0.1 mm 6 mps 756 mmHg 64%
    21:00 +20°C° 0.1 mm 6 mps 756 mmHg 63%
    22:00 +20°C° 0.1 mm 5 mps 756 mmHg 62%
    23:00 +19°C° 0.1 mm 5 mps 756 mmHg 60%

    Day after tomorrow, 24 July, Tuesday

    Time Temperature Precipitation Wind Pressure Humidity
    00:00 +19°C° 0.1 mm 5 mps 756 mmHg 59%
    01:00 +19°C° 0 mm 5 mps 756 mmHg 58%
    02:00 +19°C° 0 mm 5 mps 756 mmHg 57%
    03:00 +19°C° 0 mm 5 mps 757 mmHg 56%
    04:00 +19°C° 0 mm 5 mps 757 mmHg 58%
    05:00 +19°C° 0 mm 5 mps 757 mmHg 59%
    06:00 +19°C° 0 mm 5 mps 757 mmHg 61%
    07:00 +20°C° 0 mm 5 mps 757 mmHg 59%
    08:00 +21°C° 0 mm 5 mps 758 mmHg 57%
    09:00 +23°C° 0 mm 6 mps 758 mmHg 55%
    10:00 +24°C° 0 mm 6 mps 758 mmHg 50%
    11:00 +27°C° 0 mm 6 mps 758 mmHg 46%
    12:00 +28°C° 0 mm 6 mps 758 mmHg 42%
    13:00 +29°C° 0 mm 6 mps 758 mmHg 41%
    14:00 +29°C° 0 mm 6 mps 758 mmHg 40%
    15:00 +29°C° 0 mm 6 mps 758 mmHg 39%
    16:00 +28°C° 0 mm 6 mps 758 mmHg 44%
    17:00 +27°C° 0 mm 5 mps 758 mmHg 49%
    18:00 +26°C° 0 mm 5 mps 758 mmHg 54%
    19:00 +25°C° 0 mm 4 mps 758 mmHg 56%
    20:00 +22°C° 0 mm 4 mps 759 mmHg 59%
    21:00 +21°C° 0 mm 4 mps 759 mmHg 61%
    22:00 +20°C° 0 mm 4 mps 759 mmHg 63%
    23:00 +20°C° 0 mm 4 mps 759 mmHg 65%

    25 July, Wednesday

    Time Temperature Precipitation Wind Pressure Humidity
    00:00 +19°C° 0 mm 4 mps 759 mmHg 67%
    01:00 +19°C° 0 mm 4 mps 759 mmHg 68%
    02:00 +19°C° 0 mm 4 mps 759 mmHg 68%
    03:00 +18°C° 0 mm 4 mps 759 mmHg 69%
    04:00 +19°C° 0 mm 4 mps 759 mmHg 71%
    05:00 +19°C° 0 mm 4 mps 760 mmHg 73%
    06:00 +20°C° 0 mm 4 mps 760 mmHg 74%
    07:00 +21°C° 0 mm 5 mps 760 mmHg 70%
    08:00 +23°C° 0 mm 5 mps 760 mmHg 66%
    09:00 +26°C° 0 mm 5 mps 760 mmHg 61%
    10:00 +28°C° 0 mm 5 mps 760 mmHg 56%
    11:00 +29°C° 0 mm 6 mps 760 mmHg 50%
    12:00 +30°C° 0 mm 6 mps 760 mmHg 44%
    13:00 +32°C° 0 mm 6 mps 760 mmHg 43%
    14:00 +32°C° 0 mm 5 mps 760 mmHg 43%
    15:00 +32°C° 0 mm 5 mps 760 mmHg 42%
    16:00 +30°C° 0 mm 4 mps 760 mmHg 47%
    17:00 +29°C° 0 mm 4 mps 760 mmHg 53%
    18:00 +28°C° 0 mm 3 mps 760 mmHg 58%
    19:00 +27°C° 0 mm 3 mps 760 mmHg 60%
    20:00 +25°C° 0 mm 3 mps 760 mmHg 62%
    21:00 +23°C° 0 mm 4 mps 761 mmHg 64%
    22:00 +23°C° 0 mm 4 mps 761 mmHg 64%
    23:00 +22°C° 0 mm 4 mps 761 mmHg 65%

    26 July, Thursday

    Time Temperature Precipitation Wind Pressure Humidity
    00:00 +22°C° 0 mm 4 mps 761 mmHg 65%
    01:00 +22°C° 0 mm 4 mps 761 mmHg 65%
    02:00 +22°C° 0 mm 4 mps 761 mmHg 65%
    03:00 +22°C° 0 mm 4 mps 761 mmHg 65%
    04:00 +21°C° 0 mm 4 mps 761 mmHg 66%
    05:00 +21°C° 0 mm 4 mps 761 mmHg 68%
    06:00 +21°C° 0 mm 4 mps 762 mmHg 70%
    07:00 +23°C° 0 mm 4 mps 762 mmHg 66%
    08:00 +26°C° 0 mm 4 mps 762 mmHg 62%
    09:00 +27°C° 0 mm 4 mps 762 mmHg 58%
    10:00 +28°C° 0 mm 4 mps 762 mmHg 53%
    11:00 +30°C° 0 mm 5 mps 762 mmHg 48%
    12:00 +32°C° 0 mm 5 mps 762 mmHg 43%
    13:00 +32°C° 0 mm 5 mps 762 mmHg 43%
    14:00 +32°C° 0 mm 5 mps 762 mmHg 43%
    15:00 +32°C° 0 mm 5 mps 761 mmHg 43%
    16:00 +30°C° 0 mm 4 mps 762 mmHg 47%
    17:00 +30°C° 0 mm 4 mps 762 mmHg 52%
    18:00 +29°C° 0 mm 3 mps 762 mmHg 56%
    19:00 +27°C° 0 mm 3 mps 762 mmHg 60%
    20:00 +26°C° 0 mm 3 mps 762 mmHg 63%
    21:00 +24°C° 0 mm 3 mps 762 mmHg 66%
    22:00 +22°C° 0 mm 3 mps 762 mmHg 69%
    23:00 +22°C° 0 mm 3 mps 762 mmHg 71%

    27 July, Friday

    Time Temperature Precipitation Wind Pressure Humidity
    00:00 +21°C° 0 mm 3 mps 762 mmHg 74%
    01:00 +21°C° 0 mm 3 mps 762 mmHg 76%
    02:00 +21°C° 0 mm 3 mps 762 mmHg 78%
    03:00 +20°C° 0 mm 3 mps 762 mmHg 80%
    04:00 +21°C° 0 mm 3 mps 762 mmHg 79%
    05:00 +21°C° 0 mm 3 mps 763 mmHg 78%
    06:00 +21°C° 0 mm 4 mps 763 mmHg 77%
    07:00 +23°C° 0 mm 4 mps 763 mmHg 71%
    08:00 +26°C° 0 mm 4 mps 763 mmHg 65%
    09:00 +27°C° 0 mm 4 mps 763 mmHg 59%
    10:00 +28°C° 0 mm 5 mps 762 mmHg 55%
    11:00 +29°C° 0 mm 5 mps 762 mmHg 50%
    12:00 +30°C° 0 mm 5 mps 762 mmHg 46%
    13:00 +30°C° 0 mm 5 mps 762 mmHg 46%
    14:00 +32°C° 0 mm 5 mps 762 mmHg 45%
    15:00 +32°C° 0 mm 5 mps 762 mmHg 45%
    16:00 +30°C° 0 mm 5 mps 762 mmHg 49%
    17:00 +30°C° 0 mm 4 mps 762 mmHg 53%
    18:00 +29°C° 0 mm 3 mps 762 mmHg 56%
    19:00 +27°C° 0 mm 4 mps 762 mmHg 60%
    20:00 +26°C° 0 mm 4 mps 762 mmHg 63%
    21:00 +23°C° 0 mm 4 mps 762 mmHg 67%
    22:00 +23°C° 0 mm 4 mps 762 mmHg 68%
    23:00 +23°C° 0 mm 4 mps 762 mmHg 70%
    Show more